Other Surface Observations
Issued by NWS

Home | Current Version | Previous Version | Text Only | Print | Product List | Glossary On
Versions: 1 2 3 4 5 6 7 8 9 10 11 12 13 14 15 16 17 18 19 20 21 22 23 24 25 26 27 28 29 30 31 32 33 34 35 36 37 38 39 40 41 42 43 44 45 46 47 48 49 50
000
SXUS52 KTAE 301119
OSOTAE
OSOTAE
North Florida/South Alabama/Southwest Georgia Weather Roundup
National Weather Service Tallahassee Florida
700 AM EDT SUN AUG 30 2015

Note: "fair" indicates few or no clouds below 12,000 feet with no
significant weather and/or obstructions to visibility.

!FLZ017-115-028-034-025-301200
...North Florida...

CITY           SKY/WX    TMP DP  RH WIND       PRES   REMARKS
TALLAHASSEE    PTCLDY    73  71  93 CALM      30.03R
APALACHICOLA   CLEAR     69  69 100 NE6       30.00R
PERRY          CLOUDY   N/A N/A N/A CALM      30.05R
CROSS CITY       N/A     73  72  96 N3        30.03R
JACKSONVILLE   CLOUDY    73  73 100 CALM      30.03R
$$

!FLZ112-006-005-002-011-301200
...Florida Panhandle...

CITY           SKY/WX    TMP DP  RH WIND       PRES   REMARKS
MARIANNA       FOG       70  70 100 CALM      30.03R VSB 1
BONIFAY        CLOUDY    67  66  97 CALM      30.05R FOG
PANAMA CITY NW FOG       69  68  96 CALM      30.02R VSB 1/2
TYNDALL AFB    CLEAR     70  69  97 N5        30.01S
TYND DRONE APT FAIR      70  70 100 NE6       30.02R
DE FUNIAK SPR  FAIR      67  67 100 NE3       30.05R FOG
EGLIN AFB      CLEAR     68  66  94 N2        30.03R
DESTIN         CLEAR     73  71  93 CALM      30.03R
HURLBURT       CLEAR     68  66  91 N3        30.02R
CRESTVIEW      FOG       65  64  97 CALM      30.05R VSB 1
PENSACOLA      CLEAR     71  68  90 NE7       30.02S
$$

!ALZ063-066-301200
...South Alabama...

CITY           SKY/WX    TMP DP  RH WIND       PRES   REMARKS
DOTHAN         MOCLDY    67  67 100 CALM      30.08R FOG
OZARK CAIRNS     N/A     66  66 100 N3        30.04S FOG
FT RUCKER HELI FOG       69  67  93 CALM      30.04R VSB 1/4
RUCKER HELI 3  FOG       67  66  99 N2        30.06R VSB 1/8
RUCKER HELI 2  NOT AVBL
FLORALA APT    FOG       64  64 100 CALM      30.06S VSB 1/4
ANDALUSIA      FOG       71  68  90 CALM      30.04S VSB 1/4
TROY           FOG       68  68 100 CALM      30.06R VSB 1/4
EUFALA         FOG       72  70  94 CALM      30.04R VSB 3/4
MOBILE         MOCLDY    71  70  96 CALM      30.04R
$$

!GAZ120>161-301200
...Southwest and South Central Georgia...

CITY           SKY/WX    TMP DP  RH WIND       PRES   REMARKS
THOMASVILLE    FAIR      70  70 100 CALM      30.05R
BAINBRIDGE     CLOUDY    72  70  94 CALM      30.04S
MOODY AFB      CLOUDY    72  70  94 E3        30.05R
VALDOSTA       CLOUDY    73  73 100 E3        30.06R
MOULTRIE       MOCLDY    72  70  94 CALM      30.05R
BLAKELY        CLOUDY    73  72  94 CALM      30.05R
ALBANY         CLOUDY    72  71  97 NW3       30.06S
TIFTON         MOCLDY    73  73 100 CALM      30.05R FOG
FITZGERALD     CLOUDY    74  73  96 NE3       30.08R FOG
CORDELE        PTSUNNY   74  74  98 CALM      30.05F THUNDER
AMERICUS       CLOUDY    70  70 100 CALM      30.07R
HOMERVILLE     FAIR      73  73 100 CALM      30.07R
$$

!GMZ750-755-770-775-301200
...Coastal and Buoy Obs...

STATION/POSITION TIME  TEMP    WIND        PRES    VSBY  WAVE
                       AIR SEA DIR/SP/G                  HT/PER
                 (UTC) (F)     (DEG/KT/KT) (MB)    (MI)  (FT/S)
KEATON BEACH     1100   73      70/  4/  5 1017.2R
CEDAR KEY        1100   76     110/  8/  9 1016.7R
C TOWER          1100   80      40/ 10/ 11 1015.8R
APALACHICOLA BUO 1050   83 85  100/ 10/ 12 1015.5R         2/ 4
PANAMA CITY BUOY 1050   81 85   60/  6/  8 1015.8R         1/ 3
MOBILE BUOY      1050   82 85  130/  6/  6 1016.4R         1/ 5
ORANGE BCH AL BU 1050   82 85  140/  4/  6 1015.5R         2/ 3
$$



USA.gov is the U.S. government's official web portal to all federal, state and local government web resources and services.